1486720801.06,5008,10.5,73860.3,-4.87,-9.45,-9.31,0,*65
1486720802.28,5009,10.5,73866.3,-4.87,-9.67,-9.53,0,*60
1486720803.52,5010,10.5,73866.3,-4.89,-9.67,-9.45,0,*61
1486720804.75,5011,10.44,73862.8,-4.87,-9.53,-9.41,0,*6D
1486720805.99,5012,10.5,73872.3,-4.89,-9.53,-9.31,0,*67
1486720807.2,5013,10.44,73870.8,-4.87,-9.45,-9.31,0,*6F
1486720808.47,5014,10.5,73878.3,-4.89,-9.41,-9.15,0,*64
1486720809.68,5015,10.5,73876.8,-4.89,-9.31,-9.27,0,*63
1486720810.88,5016,10.44,73876.3,-4.91,-9.05,-9.05,0,*6E
1486720812.1,5017,10.5,73876.3,-4.89,-9.01,-8.97,0,*68
1486720813.3,5018,10.44,73874.8,-4.87,-8.89,-8.89,0,*67
1486720814.53,5019,10.44,73868.5,-4.89,-8.89,-8.85,0,*64
1486720815.75,5020,10.5,73874.0,-4.89,-8.85,-8.71,0,*69
1486720816.95,5021,10.44,73872.8,-4.87,-9.01,-8.97,0,*63
1486720818.19,5022,10.5,73872.0,-4.89,-9.27,-9.15,0,*61
1486720819.41,5023,10.5,73876.3,-4.89,-9.27,-9.19,0,*6C
1486720820.62,5024,10.44,73870.0,-4.89,-8.97,-8.75,0,*6A
1486720821.85,5025,10.5,73868.0,-4.89,-9.01,-8.89,0,*66
1486720823.07,5026,10.5,73872.3,-4.89,-8.97,-8.89,0,*6B
1486720824.28,5027,10.5,73876.5,-4.89,-8.97,-8.75,0,*69
1486720825.49,5028,10.5,73868.0,-4.91,-8.81,-8.55,0,*6A
1486720826.73,5029,10.5,73872.5,-4.89,-8.75,-8.51,0,*6D
1486720827.95,5030,10.5,73878.3,-4.87,-8.51,-8.21,0,*6A
1486720829.16,5031,10.5,73884.5,-4.87,-8.51,-8.33,0,*68
1486720830.34,5032,10.5,73886.3,-4.87,-8.59,-8.33,0,*63
1486720831.56,5033,10.5,73872.0,-4.85,-8.59,-8.41,0,*65
1486720832.79,5034,10.5,73858.3,-4.85,-8.81,-8.59,0,*6E
1486720834.01,5035,10.5,73864.5,-4.87,-8.71,-8.51,0,*6A
1486720835.21,5036,10.44,73868.8,-4.87,-9.01,-8.75,0,*69
1486720836.45,5037,10.44,73868.8,-4.85,-8.93,-8.81,0,*6B
1486720837.68,5038,10.5,73874.0,-4.85,-8.81,-8.55,0,*6E
1486720838.9,5039,10.5,73868.0,-4.85,-8.59,-8.41,0,*6F
1486720840.12,5040,10.5,73862.5,-4.83,-9.11,-8.93,0,*65
1486720841.39,5041,10.5,73862.3,-4.85,-9.37,-9.15,0,*69
1486720842.65,5042,10.5,73864.3,-4.85,-9.53,-9.49,0,*61
1486720843.89,5043,10.5,73866.5,-4.85,-9.61,-9.67,0,*6D
1486720845.13,5044,10.44,73868.0,-4.85,-9.67,-9.61,0,*6A
1486720846.39,5045,10.5,73868.0,-4.85,-9.53,-9.49,0,*66
1486720847.61,5046,10.5,73870.3,-4.85,-9.27,-9.27,0,*6E
1486720848.84,5047,10.44,73870.5,-4.85,-8.93,-8.93,0,*6F
1486720850.05,5048,10.5,73872.0,-4.83,-8.81,-8.93,0,*65
1486720851.28,5049,10.5,73874.8,-4.85,-8.81,-8.71,0,*6E
1486720852.5,5050,10.44,73878.5,-4.85,-8.55,-8.59,0,*65
1486720853.68,5051,10.44,73872.3,-4.83,-8.45,-8.55,0,*6F
1486720854.87,5052,10.5,73880.3,-4.83,-8.59,-8.55,0,*61
1486720856.08,5053,10.5,73874.8,-4.81,-8.63,-8.63,0,*6E
1486720857.28,5054,10.5,73876.3,-4.79,-8.81,-8.75,0,*65
1486720858.5,5055,10.5,73878.3,-4.79,-8.81,-8.89,0,*67
1486720859.7,5056,10.5,73878.8,-4.81,-8.55,-8.67,0,*6A
1486720860.91,5057,10.5,73882.5,-4.81,-8.55,-8.55,0,*6A
1486720862.13,5058,10.44,73880.8,-4.81,-8.63,-8.75,0,*62
1486720863.31,5059,10.5,73876.0,-4.79,-8.25,-8.29,0,*6F
1486720864.53,5060,10.5,73872.8,-4.79,-8.21,-8.07,0,*6D
1486720865.72,5061,10.5,73872.0,-4.79,-8.37,-8.37,0,*68
1486720866.94,5062,10.5,73878.3,-4.79,-8.51,-8.41,0,*6A
1486720868.13,5063,10.5,73876.8,-4.79,-9.05,-8.93,0,*64
1486720869.32,5064,10.5,73878.3,-4.79,-9.05,-8.89,0,*68
1486720870.54,5065,10.5,73876.8,-4.77,-8.97,-8.85,0,*61
1486720871.77,5066,10.5,73876.3,-4.77,-9.05,-8.89,0,*64
1486720872.95,5067,10.5,73878.8,-4.79,-8.75,-8.55,0,*6C
1486720874.16,5068,10.44,73878.0,-4.79,-8.51,-8.37,0,*61
1486720875.4,5069,10.5,73882.0,-4.77,-8.25,-8.03,0,*6A
1486720876.64,5070,10.44,73874.8,-4.77,-8.51,-8.33,0,*62
1486720877.89,5071,10.5,73874.8,-4.77,-8.71,-8.51,0,*65
1486720879.1,5072,10.5,73872.3,-4.77,-8.75,-8.71,0,*60
1486720880.31,5073,10.5,73872.0,-4.73,-8.55,-8.33,0,*61
1486720881.52,5074,10.44,73868.3,-4.73,-8.55,-8.33,0,*66
1486720882.74,5075,10.5,73868.5,-4.73,-8.59,-8.41,0,*6E
1486720883.95,5076,10.5,73872.0,-4.73,-8.29,-8.21,0,*6C
1486720885.19,5077,10.5,73870.3,-4.77,-8.63,-8.51,0,*60
1486720886.4,5078,10.5,73872.3,-4.73,-8.71,-8.67,0,*6D
1486720887.67,5079,10.5,73872.0,-4.73,-9.11,-8.81,0,*63
1486720888.92,5080,10.44,73870.0,-4.77,-9.15,-8.85,0,*61
1486720890.14,5081,10.5,73872.3,-4.73,-9.27,-8.93,0,*62
1486720891.36,5082,10.5,73864.0,-4.73,-8.81,-8.55,0,*66
1486720892.58,5083,10.5,73866.8,-4.73,-8.71,-8.45,0,*69
1486720893.8,5084,10.5,73862.8,-4.73,-8.71,-8.41,0,*6A
1486720895.02,5085,10.5,73864.5,-4.77,-8.63,-8.25,0,*6E
1486720896.23,5086,10.5,73870.3,-4.73,-8.67,-8.33,0,*6A
1486720897.4,5087,10.5,73866.8,-4.71,-8.59,-8.33,0,*64
1486720898.59,5088,10.5,73870.8,-4.71,-8.71,-8.55,0,*61
1486720899.78,5089,10.5,73868.5,-4.71,-8.93,-8.45,0,*6D
1486720900.99,5090,10.5,73870.0,-4.71,-9.11,-8.71,0,*69
1486720902.18,5091,10.5,73868.8,-4.71,-8.71,-8.45,0,*68
1486720903.42,5092,10.5,73866.0,-4.69,-9.11,-8.85,0,*69
1486720904.64,5093,10.5,73866.5,-4.71,-9.15,-8.85,0,*65
1486720905.88,5094,10.44,73874.8,-4.71,-9.41,-9.11,0,*6F
1486720907.09,5095,10.5,73874.3,-4.71,-9.75,-9.53,0,*6F
1486720908.34,5096,10.5,73870.3,-4.73,-9.75,-9.53,0,*6E
1486720909.57,5097,10.5,73872.3,-4.77,-9.67,-9.57,0,*6C
1486720910.81,5098,10.5,73870.3,-4.73,-9.79,-9.61,0,*6D
1486720912.03,5099,10.44,73868.8,-4.73,-9.79,-9.67,0,*6A
1486720913.25,5100,10.5,73868.3,-4.73,-9.79,-9.79,0,*64
1486720914.47,5101,10.5,73868.8,-4.77,-9.79,-9.67,0,*6E
1486720915.69,5102,10.5,73864.0,-4.77,-9.71,-9.67,0,*65
1486720916.91,5103,10.5,73864.5,-4.77,-9.79,-9.71,0,*6B
1486720918.12,5104,10.5,73862.0,-4.77,-9.97,-9.89,0,*6B
1486720919.34,5105,10.5,73858.8,-4.77,-9.71,-9.67,0,*62
1486720920.55,5106,10.5,73860.5,-4.79,-9.57,-9.71,0,*6C
1486720921.76,5107,10.5,73862.5,-4.79,-9.61,-9.75,0,*6C
1486720922.94,5108,10.5,73862.5,-4.79,-9.93,-9.89,0,*6D
1486720924.13,5109,10.5,73856.5,-4.79,-10.01,-9.93,0,*54
1486720925.32,5110,10.5,73854.5,-4.79,-10.01,-9.93,0,*5C
1486720926.56,5111,10.5,73858.5,-4.81,-10.15,-10.19,0,*65
1486720927.76,5112,10.5,73854.5,-4.79,-10.01,-10.01,0,*6D
1486720928.97,5113,10.5,73854.5,-4.81,-9.75,-9.71,0,*6F
1486720930.23,5114,10.5,73856.3,-4.81,-9.57,-9.57,0,*6C
1486720931.41,5115,10.5,73858.8,-4.83,-9.93,-9.89,0,*64
1486720932.61,5116,10.5,73862.5,-4.83,-10.05,-10.05,0,*6C
1486720933.82,5117,10.5,73862.8,-4.85,-9.67,-9.75,0,*68
1486720935.06,5118,10.5,73860.3,-4.83,-9.61,-9.61,0,*62
1486720936.3,5119,10.5,73860.8,-4.85,-9.67,-9.61,0,*63
1486720937.49,5120,10.5,73864.0,-4.83,-9.67,-9.67,0,*69
1486720938.72,5121,10.44,73866.3,-4.83,-9.53,-9.41,0,*6B
1486720939.97,5122,10.5,73870.0,-4.85,-9.15,-9.05,0,*6C
1486720941.19,5123,10.5,73862.3,-4.85,-9.05,-8.97,0,*66
1486720942.41,5124,10.5,73864.5,-4.85,-8.97,-8.85,0,*68
1486720943.62,5125,10.5,73868.3,-4.83,-8.81,-8.67,0,*64
1486720944.81,5126,10.5,73870.0,-4.83,-8.85,-8.71,0,*64
1486720946.02,5127,10.5,73864.0,-4.83,-8.81,-8.55,0,*67
1486720947.21,5128,10.5,73864.8,-4.83,-8.93,-8.67,0,*6A
1486720948.39,5129,10.5,73858.3,-4.83,-8.93,-8.67,0,*6B
1486720949.59,5130,10.5,73854.3,-4.83,-8.93,-8.59,0,*6E
1486720950.8,5131,10.5,73858.5,-4.81,-8.89,-8.67,0,*6B
1486720952.02,5132,10.5,73846.3,-4.81,-9.19,-8.89,0,*60
1486720953.25,5133,10.5,73848.0,-4.81,-9.57,-9.23,0,*6A
1486720954.46,5134,10.5,73850.0,-4.83,-9.75,-9.41,0,*6B
1486720955.71,5135,10.5,73852.3,-4.85,-9.75,-9.37,0,*6D
1486720956.92,5136,10.5,73854.5,-4.83,-9.61,-9.27,0,*6C
1486720958.16,5137,10.5,73858.8,-4.85,-9.75,-9.37,0,*6F
1486720959.38,5138,10.5,73852.3,-4.85,-9.67,-9.23,0,*66
1486720960.62,5139,10.5,73854.3,-4.85,-9.79,-9.37,0,*6D
1486720961.84,5140,10.5,73856.3,-4.85,-9.75,-9.27,0,*6E
1486720963.05,5141,10.5,73864.3,-4.85,-9.67,-9.23,0,*68
1486720964.29,5142,10.5,73862.0,-4.85,-9.67,-9.11,0,*6A
1486720965.51,5143,10.5,73860.8,-4.85,-9.27,-8.85,0,*63
1486720966.7,5144,10.5,73862.8,-4.87,-9.01,-8.59,0,*63
1486720967.93,5145,10.5,73860.8,-4.85,-8.85,-8.41,0,*64
1486720969.14,5146,10.5,73862.0,-4.85,-9.05,-8.67,0,*6A
1486720970.38,5147,10.5,73856.8,-4.85,-9.11,-8.67,0,*6E
1486720971.6,5148,10.5,73858.8,-4.85,-8.93,-8.41,0,*6E
1486720972.82,5149,10.5,73860.3,-4.83,-9.15,-8.71,0,*65
1486720974.03,5150,10.5,73860.5,-4.83,-9.53,-9.05,0,*6D
1486720975.25,5151,10.5,73856.3,-4.83,-9.15,-8.67,0,*6B
1486720976.45,5152,10.5,73858.0,-4.83,-8.93,-8.45,0,*67
1486720977.66,5153,10.5,73858.0,-4.83,-9.11,-8.71,0,*6A
1486720978.88,5154,10.5,73856.3,-4.81,-9.05,-8.75,0,*6E
1486720980.09,5155,10.5,73858.3,-4.83,-9.37,-8.93,0,*64
1486720981.29,5156,10.5,73854.8,-4.83,-9.05,-8.71,0,*6A
1486720982.48,5157,10.5,73856.8,-4.83,-8.93,-8.45,0,*62
1486720983.7,5158,10.5,73862.3,-4.81,-8.89,-8.41,0,*60
1486720984.89,5159,10.5,73860.0,-4.79,-8.89,-8.29,0,*68
1486720986.11,5160,10.5,73864.5,-4.79,-8.89,-8.51,0,*6D
1486720987.3,5161,10.5,73864.8,-4.79,-8.93,-8.63,0,*66
1486720988.49,5162,10.5,73858.0,-4.79,-9.23,-8.89,0,*6B
1486720989.7,5163,10.5,73858.3,-4.79,-9.75,-9.45,0,*68
1486720990.94,5164,10.5,73858.5,-4.81,-9.61,-9.23,0,*6D
1486720992.2,5165,10.5,73866.0,-4.81,-9.45,-9.11,0,*6B
1486720993.42,5166,10.5,73864.0,-4.81,-8.93,-8.75,0,*61
1486720994.66,5167,10.5,73862.0,-4.81,-9.05,-8.81,0,*65
1486720995.89,5168,10.5,73866.8,-4.81,-8.81,-8.41,0,*6B
1486720997.08,5169,10.5,73870.0,-4.79,-8.67,-8.37,0,*64
1486720998.27,5170,10.5,73864.3,-4.79,-8.75,-8.41,0,*6E
1486720999.46,5171,10.5,73860.5,-4.79,-9.05,-8.89,0,*6D
1486721000.72,5172,10.5,73860.3,-4.77,-9.15,-8.89,0,*61
1486721001.94,5173,10.5,73860.3,-4.77,-9.01,-8.89,0,*65
1486721003.19,5174,10.5,73862.3,-4.77,-9.15,-8.97,0,*68
1486721004.41,5175,10.5,73860.8,-4.77,-9.27,-9.05,0,*62
1486721005.63,5176,10.5,73862.0,-4.79,-9.23,-9.11,0,*6E
1486721006.82,5177,10.5,73862.8,-4.79,-9.05,-9.01,0,*6A
1486721008.04,5178,10.5,73862.5,-4.79,-9.19,-9.11,0,*69
1486721009.23,5179,10.5,73860.0,-4.79,-9.19,-9.01,0,*69
1486721010.42,5180,10.5,73862.3,-4.79,-9.23,-9.19,0,*6F
1486721011.61,5181,10.5,73862.5,-4.79,-9.01,-9.05,0,*63
1486721012.8,5182,10.5,73856.3,-4.79,-8.89,-8.93,0,*6F
1486721013.99,5183,10.5,73858.3,-4.79,-8.63,-8.67,0,*61
1486721015.22,5184,10.5,73856.5,-4.79,-8.51,-8.51,0,*62
1486721016.43,5185,10.5,73856.3,-4.79,-8.81,-8.93,0,*60
1486721017.63,5186,10.5,73860.8,-4.79,-8.89,-8.93,0,*6B
1486721018.81,5187,10.5,73866.8,-4.79,-8.67,-8.67,0,*61
1486721019.99,5188,10.5,73874.3,-4.79,-8.41,-8.41,0,*6E
1486721021.24,5189,10.5,73868.8,-4.77,-8.51,-8.45,0,*64
1486721022.46,5190,10.5,73868.5,-4.77,-8.45,-8.37,0,*6C
1486721023.67,5191,10.5,73870.0,-4.77,-8.75,-8.71,0,*6C
1486721024.89,5192,10.5,73862.8,-4.77,-8.59,-8.59,0,*6B
1486721026.15,5193,10.5,73864.8,-4.77,-8.51,-8.51,0,*6A
1486721027.37,5194,10.5,73866.3,-4.77,-8.75,-8.63,0,*6A
1486721028.57,5195,10.5,73862.0,-4.73,-8.67,-8.67,0,*68
1486721029.84,5196,10.5,73860.3,-4.77,-8.51,-8.51,0,*6F
1486721031.05,5197,10.5,73870.3,-4.77,-8.59,-8.59,0,*6E
1486721032.28,5198,10.5,73870.0,-4.77,-8.85,-8.85,0,*61
1486721033.49,5199,10.5,73866.3,-4.73,-8.59,-8.71,0,*6E
1486721034.73,5200,10.5,73868.8,-4.77,-8.45,-8.51,0,*66
1486721035.96,5201,10.5,73868.3,-4.77,-8.89,-8.89,0,*62
1486721037.21,5202,10.5,73860.3,-4.73,-8.81,-8.81,0,*65
1486721038.43,5203,10.5,73866.8,-4.77,-8.71,-8.63,0,*63
1486721039.63,5204,10.5,73864.0,-4.77,-8.33,-8.33,0,*67
1486721040.9,5205,10.5,73860.5,-4.77,-8.51,-8.51,0,*66
1486721042.15,5206,10.5,73864.3,-4.77,-8.51,-8.45,0,*60
1486721043.4,5207,10.5,73866.0,-4.77,-8.25,-8.07,0,*64
1486721044.66,5208,10.5,73864.5,-4.77,-8.03,-7.95,0,*6B
1486721045.87,5209,10.5,73866.5,-4.77,-8.37,-8.33,0,*6E
1486721047.12,5210,10.5,73866.8,-4.77,-8.17,-8.07,0,*63
1486721048.33,5211,10.5,73858.0,-4.73,-8.21,-8.17,0,*62
1486721049.54,5212,10.5,73856.0,-4.77,-8.63,-8.63,0,*60
1486721050.79,5213,10.5,73862.3,-4.77,-8.51,-8.37,0,*61
1486721052.04,5214,10.5,73864.8,-4.77,-8.51,-8.45,0,*63
1486721053.25,5215,10.5,73860.0,-4.73,-8.67,-8.59,0,*6E
1486721054.46,5216,10.5,73868.3,-4.73,-8.29,-8.17,0,*6D
1486721055.67,5217,10.5,73866.5,-4.73,-8.29,-8.17,0,*6C
1486721056.9,5218,10.5,73858.8,-4.73,-8.29,-8.03,0,*66
1486721058.15,5219,10.5,73856.5,-4.77,-8.07,-7.83,0,*68
1486721059.41,5220,10.5,73862.8,-4.77,-8.03,-7.69,0,*62
1486721060.67,5221,10.5,73864.8,-4.73,-8.03,-7.73,0,*6C
1486721061.88,5222,10.5,73864.3,-4.71,-8.41,-7.99,0,*6F
1486721063.06,5223,10.5,73868.5,-4.71,-9.01,-8.67,0,*65
1486721064.25,5224,10.5,73866.0,-4.71,-8.67,-8.21,0,*61
1486721065.43,5225,10.5,73858.3,-4.71,-8.59,-8.17,0,*68
1486721066.61,5226,10.5,73852.8,-4.71,-8.85,-8.55,0,*6C
1486721067.8,5227,10.5,73850.3,-4.71,-8.71,-8.29,0,*6D
1486721068.98,5228,10.5,73852.3,-4.71,-8.71,-8.33,0,*69
1486721070.19,5229,10.5,73848.5,-4.71,-9.27,-8.81,0,*63
1486721071.38,5230,10.5,73844.8,-4.71,-9.27,-8.85,0,*6F
1486721072.56,5231,10.5,73836.3,-4.71,-9.01,-8.59,0,*6B
1486721073.78,5232,10.5,73832.8,-4.71,-9.37,-8.85,0,*6C
1486721075.01,5233,10.5,73838.3,-4.69,-9.45,-8.93,0,*66
1486721076.24,5234,10.5,73832.8,-4.71,-9.53,-9.11,0,*64
1486721077.46,5235,10.5,73834.0,-4.73,-9.75,-9.27,0,*66
1486721078.69,5236,10.5,73826.5,-4.73,-9.61,-9.27,0,*60
1486721079.92,5237,10.5,73832.5,-4.73,-9.93,-9.57,0,*6B
1486721081.18,5238,10.5,73836.0,-4.73,-9.83,-9.53,0,*61
1486721082.41,5239,10.5,73840.3,-4.73,-10.19,-9.79,0,*53
1486721083.65,5240,10.5,73838.0,-4.77,-9.79,-9.41,0,*6C
1486721084.88,5241,10.5,73840.0,-4.77,-9.97,-9.57,0,*6A
1486721086.14,5242,10.5,73852.3,-4.73,-9.53,-9.15,0,*63
1486721087.36,5243,10.5,73856.5,-4.77,-9.27,-8.89,0,*61
1486721088.58,5244,10.5,73858.8,-4.73,-9.01,-8.67,0,*66
1486721089.8,5245,10.5,73858.3,-4.77,-9.27,-8.89,0,*67
1486721091.02,5246,10.5,73858.8,-4.73,-9.01,-8.71,0,*63
1486721092.25,5247,10.5,73858.5,-4.73,-9.23,-8.81,0,*6D
1486721093.51,5248,10.5,73868.5,-4.73,-9.53,-9.15,0,*69
1486721094.75,5249,10.5,73870.8,-4.73,-9.79,-9.53,0,*62
1486721095.96,5250,10.5,73868.0,-4.71,-10.05,-9.53,0,*5B
1486721097.16,5251,10.5,73866.8,-4.71,-9.97,-9.61,0,*68
1486721098.37,5252,10.5,73870.5,-4.71,-10.05,-9.61,0,*58
1486721099.58,5253,10.5,73864.0,-4.71,-10.05,-9.61,0,*59
1486721100.79,5254,10.5,73864.3,-4.71,-10.23,-9.83,0,*56
1486721102.0,5255,10.5,73868.8,-4.71,-9.79,-9.37,0,*6F
1486721103.21,5256,10.5,73866.5,-4.71,-9.75,-9.49,0,*69
1486721104.4,5257,10.5,73868.8,-4.71,-10.23,-9.97,0,*50
1486721105.61,5258,10.5,73870.0,-4.71,-10.05,-9.83,0,*5E
1486721106.79,5259,10.5,73868.5,-4.71,-9.93,-9.79,0,*6D
1486721108.0,5260,10.5,73864.3,-4.69,-9.79,-9.75,0,*66
1486721109.24,5261,10.5,73862.5,-4.69,-9.71,-9.61,0,*6A
1486721110.45,5262,10.5,73860.3,-4.71,-9.79,-9.83,0,*64
1486721111.64,5263,10.5,73858.5,-4.71,-9.75,-9.93,0,*68
1486721112.84,5264,10.5,73862.3,-4.71,-9.53,-9.79,0,*6F
1486721114.08,5265,10.5,73858.0,-4.69,-9.61,-9.89,0,*69
1486721115.29,5266,10.5,73862.8,-4.69,-9.93,-10.31,0,*5C
1486721116.54,5267,10.5,73858.5,-4.69,-10.19,-10.71,0,*63
1486721117.73,5268,10.5,73856.8,-4.71,-10.45,-11.01,0,*6A
1486721118.93,5269,10.5,73858.0,-4.71,-10.31,-10.89,0,*69
1486721120.12,5270,10.5,73860.5,-4.71,-10.23,-10.93,0,*69
1486721121.32,5271,10.5,73864.0,-4.71,-10.31,-11.01,0,*61
1486721122.54,5272,10.5,73866.8,-4.71,-10.09,-10.63,0,*6C
1486721123.78,5273,10.5,73862.8,-4.73,-9.41,-9.97,0,*68
1486721125.05,5274,10.5,73862.8,-4.77,-9.41,-9.83,0,*6E
1486721126.29,5275,10.5,73860.8,-4.73,-8.97,-9.53,0,*6C
1486721127.53,5276,10.5,73860.5,-4.73,-9.49,-9.97,0,*65
1486721128.76,5277,10.5,73862.0,-4.73,-9.75,-10.31,0,*5F
1486721129.98,5278,10.5,73862.3,-4.77,-9.67,-10.09,0,*5C
1486721131.22,5279,10.5,73858.0,-4.77,-9.53,-9.79,0,*65
1486721132.46,5280,10.5,73860.8,-4.77,-9.41,-9.67,0,*6F
1486721133.68,5281,10.5,73860.8,-4.77,-8.89,-9.19,0,*62
1486721134.9,5282,10.5,73860.5,-4.77,-9.19,-9.31,0,*63
1486721136.14,5283,10.5,73858.3,-4.79,-9.45,-9.49,0,*6A
1486721137.35,5284,10.5,73852.3,-4.79,-9.31,-9.45,0,*62
1486721138.53,5285,10.5,73850.0,-4.79,-9.19,-9.31,0,*6A
1486721139.75,5286,10.5,73854.3,-4.79,-9.19,-9.37,0,*6F
1486721141.0,5287,10.5,73850.8,-4.81,-9.31,-9.37,0,*63
1486721142.21,5288,10.5,73848.8,-4.81,-9.05,-9.31,0,*6D
1486721143.48,5289,10.5,73846.5,-4.81,-9.37,-9.49,0,*62
1486721144.72,5290,10.5,73852.0,-4.81,-9.31,-9.37,0,*65
1486721145.96,5291,10.5,73848.8,-4.81,-9.31,-9.37,0,*64
1486721147.21,5292,10.5,73848.8,-4.81,-9.31,-9.45,0,*62
1486721148.48,5293,10.5,73846.0,-4.81,-9.37,-9.37,0,*60
1486721149.68,5294,10.5,73852.3,-4.83,-8.85,-8.93,0,*62
1486721150.86,5295,10.5,73848.5,-4.83,-8.55,-8.59,0,*68
1486721152.05,5296,10.5,73846.8,-4.83,-8.55,-8.55,0,*67
1486721153.24,5297,10.5,73852.8,-4.83,-8.41,-8.41,0,*66
1486721154.43,5298,10.5,73858.0,-4.83,-8.59,-8.45,0,*64
1486721155.7,5299,10.5,73862.3,-4.81,-8.51,-8.51,0,*6A
1486721156.91,5300,10.5,73858.5,-4.81,-8.41,-8.25,0,*69
1486721158.15,5301,10.5,73852.8,-4.81,-8.51,-8.29,0,*65
1486721159.33,5302,10.5,73852.5,-4.79,-8.67,-8.41,0,*6A
1486721160.55,5303,10.5,73852.3,-4.81,-8.93,-8.67,0,*63
1486721161.73,5304,10.5,73852.8,-4.79,-8.67,-8.41,0,*6C
1486721162.95,5305,10.5,73846.5,-4.81,-8.75,-8.41,0,*69
1486721164.14,5306,10.5,73844.0,-4.79,-8.75,-8.37,0,*6C
1486721165.33,5307,10.5,73838.5,-4.79,-9.01,-8.75,0,*69
1486721166.51,5308,10.5,73846.5,-4.79,-8.89,-8.63,0,*60
1486721167.73,5309,10.5,73850.0,-4.79,-8.93,-8.81,0,*66
1486721168.95,5310,10.5,73848.8,-4.79,-9.11,-8.89,0,*6D
1486721170.14,5311,10.5,73856.3,-4.79,-8.93,-8.75,0,*64
1486721171.35,5312,10.5,73862.0,-4.79,-9.05,-8.81,0,*62
1486721172.56,5313,10.5,73862.8,-4.79,-9.05,-8.81,0,*63
1486721173.74,5314,10.5,73862.0,-4.79,-8.89,-8.67,0,*69
1486721174.96,5315,10.5,73860.0,-4.77,-8.89,-8.59,0,*6B
1486721176.17,5316,10.5,73856.3,-4.77,-8.97,-8.71,0,*6D
1486721177.39,5317,10.5,73862.0,-4.73,-8.93,-8.67,0,*6B
1486721178.64,5318,10.5,73864.8,-4.77,-9.15,-8.85,0,*63
1486721179.86,5319,10.5,73864.3,-4.73,-8.85,-8.71,0,*65
1486721181.07,5320,10.5,73868.5,-4.73,-9.23,-8.85,0,*69
1486721182.29,5321,10.5,73864.5,-4.73,-9.23,-8.93,0,*6F
1486721183.5,5322,10.5,73868.3,-4.73,-8.93,-8.67,0,*6D
1486721184.72,5323,10.5,73866.5,-4.73,-8.85,-8.67,0,*6B
1486721185.93,5324,10.5,73874.0,-4.73,-8.97,-8.71,0,*68
1486721187.16,5325,10.5,73870.5,-4.71,-9.37,-9.11,0,*67
1486721188.35,5326,10.5,73872.8,-4.71,-9.23,-8.97,0,*6E
1486721189.59,5327,10.5,73864.0,-4.73,-9.27,-9.15,0,*62
1486721190.81,5328,10.5,73862.0,-4.71,-9.11,-9.01,0,*6F
1486721192.03,5329,10.5,73862.5,-4.71,-9.15,-9.01,0,*6A
1486721193.24,5330,10.5,73860.0,-4.71,-9.11,-8.93,0,*6C
1486721194.43,5331,10.5,73860.0,-4.71,-8.93,-8.85,0,*61
1486721195.62,5332,10.5,73856.0,-4.71,-8.97,-8.93,0,*61
1486721196.83,5333,10.5,73858.3,-4.71,-9.27,-9.15,0,*65
1486721198.01,5334,10.5,73856.0,-4.71,-9.23,-9.23,0,*63
1486721199.25,5335,10.5,73856.8,-4.69,-9.05,-9.11,0,*6E
1486721200.44,5336,10.5,73862.0,-4.71,-9.23,-9.27,0,*65
1486721201.65,5337,10.5,73854.8,-4.71,-8.97,-9.11,0,*6F
1486721202.89,5338,10.5,73860.5,-4.73,-8.97,-9.11,0,*62
1486721204.13,5339,10.5,73862.3,-4.71,-9.15,-9.37,0,*6E
1486721205.34,5340,10.5,73860.3,-4.71,-9.27,-9.49,0,*68
1486721206.61,5341,10.5,73862.8,-4.73,-9.37,-9.41,0,*62
1486721207.88,5342,10.5,73860.5,-4.73,-9.41,-9.49,0,*68
1486721209.1,5343,10.5,73864.8,-4.73,-8.93,-9.01,0,*6B
1486721210.32,5344,10.5,73864.3,-4.73,-8.71,-8.85,0,*6D
1486721211.53,5345,10.5,73868.3,-4.73,-8.55,-8.67,0,*66
1486721212.75,5346,10.5,73868.8,-4.77,-8.89,-8.97,0,*6F
1486721213.97,5347,10.5,73862.8,-4.77,-8.71,-8.63,0,*62
1486721215.23,5348,10.5,73858.3,-4.73,-8.81,-8.81,0,*6A
1486721216.45,5349,10.5,73856.0,-4.73,-8.97,-9.01,0,*65
1486721217.66,5350,10.5,73860.0,-4.77,-8.75,-8.75,0,*67
1486721218.88,5351,10.5,73858.8,-4.77,-8.37,-8.37,0,*66
1486721220.1,5352,10.5,73856.0,-4.77,-8.33,-8.37,0,*61
1486721221.32,5353,10.5,73856.8,-4.77,-8.45,-8.45,0,*64
1486721222.53,5354,10.5,73862.8,-4.73,-8.29,-8.29,0,*67
1486721223.74,5355,10.5,73866.8,-4.73,-8.33,-8.21,0,*65
1486721224.94,5356,10.5,73866.0,-4.77,-8.33,-8.33,0,*61
1486721226.16,5357,10.5,73870.0,-4.73,-8.41,-8.21,0,*62
1486721227.37,5358,10.5,73868.0,-4.73,-8.55,-8.41,0,*6E
1486721228.58,5359,10.5,73870.3,-4.77,-8.59,-8.33,0,*62
1486721229.83,5360,10.5,73870.8,-4.77,-8.51,-8.21,0,*63
1486721231.06,5361,10.5,73874.3,-4.77,-8.33,-7.95,0,*66
1486721232.27,5362,10.5,73868.8,-4.73,-8.59,-8.41,0,*6B
1486721233.48,5363,10.5,73874.0,-4.73,-8.67,-8.59,0,*6E
1486721234.69,5364,10.5,73874.3,-4.73,-8.97,-8.67,0,*6B
1486721235.9,5365,10.5,73864.5,-4.73,-9.01,-8.71,0,*63
1486721237.16,5366,10.5,73862.8,-4.73,-9.15,-8.85,0,*6E
1486721238.39,5367,10.5,73860.5,-4.73,-9.49,-9.27,0,*6F
1486721239.63,5368,10.5,73862.5,-4.73,-9.49,-9.23,0,*64
1486721240.86,5369,10.5,73866.8,-4.73,-9.49,-9.23,0,*65
1486721242.1,5370,10.5,73864.8,-4.77,-9.53,-9.19,0,*6B
1486721243.35,5371,10.5,73866.5,-4.77,-9.57,-9.41,0,*63
1486721244.56,5372,10.5,73860.3,-4.77,-9.67,-9.31,0,*64
1486721245.83,5373,10.5,73860.8,-4.81,-9.61,-9.45,0,*69
1486721247.03,5374,10.5,73864.5,-4.79,-9.49,-9.31,0,*60
1486721248.27,5375,10.5,73864.3,-4.81,-9.75,-9.61,0,*6C
1486721249.46,5376,10.5,73864.5,-4.79,-9.75,-9.71,0,*69
1486721250.72,5377,10.5,73862.5,-4.81,-9.61,-9.61,0,*6B
1486721251.99,5378,10.5,73864.5,-4.81,-9.45,-9.37,0,*61
1486721253.24,5379,10.5,73860.0,-4.81,-9.57,-9.49,0,*6A
1486721254.46,5380,10.5,73870.8,-4.83,-9.61,-9.67,0,*67
1486721255.7,5381,10.5,73864.0,-4.85,-9.61,-9.67,0,*60
1486721256.93,5382,10.5,73858.5,-4.83,-9.53,-9.49,0,*68
1486721258.12,5383,10.5,73856.5,-4.83,-9.27,-9.27,0,*62
1486721259.36,5384,10.5,73858.3,-4.83,-9.49,-9.49,0,*65
1486721260.6,5385,10.5,73858.3,-4.83,-9.53,-9.53,0,*64
1486721261.87,5386,10.5,73858.3,-4.85,-9.49,-9.49,0,*61
1486721263.08,5387,10.5,73860.0,-4.87,-9.57,-9.67,0,*61
1486721264.27,5388,10.5,73862.3,-4.87,-9.67,-9.71,0,*6A
1486721265.45,5389,10.5,73864.8,-4.87,-9.31,-9.31,0,*6C
1486721266.68,5390,10.5,73864.3,-4.87,-9.57,-9.57,0,*64
1486721267.95,5391,10.5,73864.8,-4.89,-9.41,-9.41,0,*6B
1486721269.15,5392,10.5,73868.5,-4.87,-8.97,-9.01,0,*68
1486721270.37,5393,10.5,73872.3,-4.87,-9.01,-9.11,0,*66
1486721271.6,5394,10.5,73868.8,-4.89,-8.89,-8.85,0,*62
1486721272.8,5395,10.5,73868.0,-4.87,-9.01,-9.01,0,*61
1486721273.99,5396,10.5,73862.0,-4.87,-8.85,-8.75,0,*6D
1486721275.25,5397,10.5,73858.3,-4.89,-9.15,-9.01,0,*68
1486721276.47,5398,10.5,73854.8,-4.87,-9.01,-9.11,0,*6D
1486721277.69,5399,10.5,73854.5,-4.89,-8.97,-8.97,0,*63
1486721278.91,5400,10.5,73858.3,-4.89,-9.01,-8.97,0,*6A
1486721280.13,5401,10.5,73856.8,-4.89,-8.89,-8.75,0,*66
1486721281.35,5402,10.5,73858.3,-4.89,-8.85,-8.71,0,*6D
1486721282.58,5403,10.5,73856.8,-4.87,-8.51,-8.37,0,*69
1486721283.82,5404,10.5,73852.8,-4.89,-8.59,-8.51,0,*68
1486721285.03,5405,10.5,73854.5,-4.89,-8.59,-8.63,0,*68
1486721286.24,5406,10.5,73862.3,-4.89,-8.63,-8.63,0,*62
1486721287.43,5407,10.5,73866.5,-4.87,-8.37,-8.33,0,*69
1486721288.62,5408,10.5,73866.5,-4.87,-8.37,-8.21,0,*65
1486721289.81,5409,10.5,73866.3,-4.87,-8.21,-8.17,0,*66
1486721291.03,5410,10.5,73870.3,-4.87,-8.29,-8.07,0,*67
1486721292.25,5411,10.5,73868.5,-4.85,-8.41,-8.17,0,*6B
1486721293.44,5412,10.5,73866.5,-4.87,-8.37,-8.21,0,*6E
1486721294.63,5413,10.5,73874.3,-4.87,-8.71,-8.63,0,*6B
1486721295.82,5414,10.5,73874.3,-4.87,-8.71,-8.59,0,*65
1486721297.04,5415,10.5,73872.3,-4.85,-8.59,-8.41,0,*65
1486721298.26,5416,10.5,73866.0,-4.85,-8.85,-8.71,0,*64
1486721299.47,5417,10.5,73864.8,-4.85,-8.71,-8.67,0,*69
1486721300.68,5418,10.5,73866.3,-4.85,-8.59,-8.59,0,*61
1486721301.93,5419,10.5,73870.3,-4.85,-8.81,-8.85,0,*64
1486721303.15,5420,10.5,73868.0,-4.85,-8.93,-8.97,0,*6E
1486721304.36,5421,10.5,73864.8,-4.85,-8.55,-8.55,0,*6B
1486721305.58,5422,10.5,73864.5,-4.85,-8.71,-8.71,0,*68
1486721306.8,5423,10.5,73866.3,-4.85,-8.71,-8.71,0,*69
1486721307.99,5424,10.5,73866.8,-4.83,-8.55,-8.45,0,*69
1486721309.22,5425,10.5,73862.5,-4.85,-8.85,-8.93,0,*68
1486721310.44,5426,10.5,73866.0,-4.87,-9.01,-9.11,0,*6F
1486721311.64,5427,10.5,73862.0,-4.87,-8.85,-9.01,0,*62
1486721312.86,5428,10.5,73862.3,-4.87,-9.01,-9.11,0,*61
1486721314.11,5429,10.5,73862.8,-4.87,-9.15,-9.15,0,*61
1486721315.33,5430,10.5,73862.8,-4.87,-9.31,-9.41,0,*6E
1486721316.57,5431,10.5,73866.8,-4.87,-9.41,-9.41,0,*68
1486721317.79,5432,10.5,73868.8,-4.89,-9.27,-9.27,0,*65
1486721319.02,5433,10.5,73870.8,-4.89,-8.85,-8.89,0,*68
1486721320.24,5434,10.5,73868.5,-4.89,-8.89,-8.75,0,*60
1486721321.43,5435,10.5,73868.0,-4.87,-8.71,-8.63,0,*6F